owner,sensor,date,latitude,longitude,vertical_datum,sea_water_practical_salinity,qcFlag 
DISL,ioos:station:DISL:DISL:1,2009-10-01T00:00:00Z,30.2513,-88.0778,6.761,9.0,1111122 
DISL,ioos:station:DISL:DISL:1,2009-10-01T00:30:00Z,30.2513,-88.0778,6.756,8.98,1111122 
DISL,ioos:station:DISL:DISL:1,2009-10-01T01:00:00Z,30.2513,-88.0778,6.785,8.48,1111122 
DISL,ioos:station:DISL:DISL:1,2009-10-01T01:30:00Z,30.2513,-88.0778,6.804,8.67,1111122 
DISL,ioos:station:DISL:DISL:1,2009-10-01T02:00:00Z,30.2513,-88.0778,6.851,8.85,1111122 
DISL,ioos:station:DISL:DISL:1,2009-10-01T02:30:00Z,30.2513,-88.0778,6.864,8.95,1111122 
DISL,ioos:station:DISL:DISL:1,2009-10-01T03:00:00Z,30.2513,-88.0778,6.864,8.97,1111122 
DISL,ioos:station:DISL:DISL:1,2009-10-01T03:30:00Z,30.2513,-88.0778,6.871,8.94,1111122 
DISL,ioos:station:DISL:DISL:1,2009-10-01T04:00:00Z,30.2513,-88.0778,6.953,8.71,1111122 
DISL,ioos:station:DISL:DISL:1,2009-10-01T04:30:00Z,30.2513,-88.0778,6.921,8.71,1111122 
DISL,ioos:station:DISL:DISL:1,2009-10-01T05:00:00Z,30.2513,-88.0778,6.945,8.87,1111122 
DISL,ioos:station:DISL:DISL:1,2009-10-01T05:30:00Z,30.2513,-88.0778,6.956,8.77,1111122 
DISL,ioos:station:DISL:DISL:1,2009-10-01T06:00:00Z,30.2513,-88.0778,6.943,8.5,1111122 
DISL,ioos:station:DISL:DISL:1,2009-10-01T06:30:00Z,30.2513,-88.0778,6.962,8.34,1111122 
DISL,ioos:station:DISL:DISL:1,2009-10-01T07:00:00Z,30.2513,-88.0778,6.988,8.11,1111122 
DISL,ioos:station:DISL:DISL:1,2009-10-01T07:30:00Z,30.2513,-88.0778,6.953,8.01,1111122 
DISL,ioos:station:DISL:DISL:1,2009-10-01T08:00:00Z,30.2513,-88.0778,6.954,8.14,1111122 
DISL,ioos:station:DISL:DISL:1,2009-10-01T08:30:00Z,30.2513,-88.0778,6.966,8.36,1111122 
DISL,ioos:station:DISL:DISL:1,2009-10-01T09:00:00Z,30.2513,-88.0778,6.971,8.34,1111122 
DISL,ioos:station:DISL:DISL:1,2009-10-01T09:30:00Z,30.2513,-88.0778,6.989,8.32,1111122 
DISL,ioos:station:DISL:DISL:1,2009-10-01T10:00:00Z,30.2513,-88.0778,7.03,8.19,1111122 
DISL,ioos:station:DISL:DISL:1,2009-10-01T10:30:00Z,30.2513,-88.0778,7.07,7.66,1111122 
DISL,ioos:station:DISL:DISL:1,2009-10-01T11:00:00Z,30.2513,-88.0778,7.11,7.72,1111122 
DISL,ioos:station:DISL:DISL:1,2009-10-01T11:30:00Z,30.2513,-88.0778,7.09,7.34,1111122 
DISL,ioos:station:DISL:DISL:1,2009-10-01T12:00:00Z,30.2513,-88.0778,7.13,7.35,1111122 
DISL,ioos:station:DISL:DISL:1,2009-10-01T12:30:00Z,30.2513,-88.0778,7.2,7.3,1111122 
DISL,ioos:station:DISL:DISL:1,2009-10-01T13:00:00Z,30.2513,-88.0778,7.24,8.56,1111122 
DISL,ioos:station:DISL:DISL:1,2009-10-01T13:30:00Z,30.2513,-88.0778,7.27,9.9,1111122 
DISL,ioos:station:DISL:DISL:1,2009-10-01T14:00:00Z,30.2513,-88.0778,7.25,9.52,1111122 
DISL,ioos:station:DISL:DISL:1,2009-10-01T14:30:00Z,30.2513,-88.0778,7.3,9.11,1111122 
DISL,ioos:station:DISL:DISL:1,2009-10-01T15:00:00Z,30.2513,-88.0778,7.32,9.0,1111122 
DISL,ioos:station:DISL:DISL:1,2009-10-01T15:30:00Z,30.2513,-88.0778,7.37,9.2,1111122 
DISL,ioos:station:DISL:DISL:1,2009-10-01T16:00:00Z,30.2513,-88.0778,7.33,9.52,1111122 
DISL,ioos:station:DISL:DISL:1,2009-10-01T16:30:00Z,30.2513,-88.0778,7.34,9.38,1111122 
DISL,ioos:station:DISL:DISL:1,2009-10-01T17:00:00Z,30.2513,-88.0778,7.31,8.27,1111122 
DISL,ioos:station:DISL:DISL:1,2009-10-01T17:30:00Z,30.2513,-88.0778,7.24,8.6,1111122 
DISL,ioos:station:DISL:DISL:1,2009-10-01T18:00:00Z,30.2513,-88.0778,7.22,8.02,1111122 
DISL,ioos:station:DISL:DISL:1,2009-10-01T18:30:00Z,30.2513,-88.0778,7.16,7.52,1111122 
DISL,ioos:station:DISL:DISL:1,2009-10-01T19:00:00Z,30.2513,-88.0778,7.11,7.46,1111122 
DISL,ioos:station:DISL:DISL:1,2009-10-01T19:30:00Z,30.2513,-88.0778,7.09,7.39,1111122 
DISL,ioos:station:DISL:DISL:1,2009-10-01T20:00:00Z,30.2513,-88.0778,7.05,7.2,1111122 
DISL,ioos:station:DISL:DISL:1,2009-10-01T20:30:00Z,30.2513,-88.0778,7.05,7.19,1111122 
DISL,ioos:station:DISL:DISL:1,2009-10-01T21:00:00Z,30.2513,-88.0778,7.02,7.18,1111122 
DISL,ioos:station:DISL:DISL:1,2009-10-01T21:30:00Z,30.2513,-88.0778,6.979,6.89,1111122 
DISL,ioos:station:DISL:DISL:1,2009-10-01T22:00:00Z,30.2513,-88.0778,6.996,6.84,1111122 
DISL,ioos:station:DISL:DISL:1,2009-10-01T22:30:00Z,30.2513,-88.0778,6.944,6.65,1111122 
DISL,ioos:station:DISL:DISL:1,2009-10-01T23:00:00Z,30.2513,-88.0778,6.965,6.68,1111122 
DISL,ioos:station:DISL:DISL:1,2009-10-01T23:30:00Z,30.2513,-88.0778,6.961,6.58,1111122 
DISL,ioos:station:DISL:DISL:1,2009-10-02T00:00:00Z,30.2513,-88.0778,6.892,6.59,1111122 
DISL,ioos:station:DISL:DISL:1,2009-10-02T00:30:00Z,30.2513,-88.0778,6.984,6.62,1111122 
DISL,ioos:station:DISL:DISL:1,2009-10-02T01:00:00Z,30.2513,-88.0778,7.03,6.65,1111122 
DISL,ioos:station:DISL:DISL:1,2009-10-02T01:30:00Z,30.2513,-88.0778,7.07,6.68,1111122 
DISL,ioos:station:DISL:DISL:1,2009-10-02T02:00:00Z,30.2513,-88.0778,7.08,8.13,1111122 
DISL,ioos:station:DISL:DISL:1,2009-10-02T02:30:00Z,30.2513,-88.0778,7.11,9.05,1111122 
DISL,ioos:station:DISL:DISL:1,2009-10-02T03:00:00Z,30.2513,-88.0778,7.11,9.26,1111122 
DISL,ioos:station:DISL:DISL:1,2009-10-02T03:30:00Z,30.2513,-88.0778,7.16,9.05,1111122 
DISL,ioos:station:DISL:DISL:1,2009-10-02T04:00:00Z,30.2513,-88.0778,7.18,9.87,1111122 
DISL,ioos:station:DISL:DISL:1,2009-10-02T04:30:00Z,30.2513,-88.0778,7.27,12.79,1111122 
DISL,ioos:station:DISL:DISL:1,2009-10-02T05:00:00Z,30.2513,-88.0778,7.25,11.82,1111122 
DISL,ioos:station:DISL:DISL:1,2009-10-02T05:30:00Z,30.2513,-88.0778,7.33,10.25,1111122 
DISL,ioos:station:DISL:DISL:1,2009-10-02T06:00:00Z,30.2513,-88.0778,7.34,10.59,1111122 
DISL,ioos:station:DISL:DISL:1,2009-10-02T06:30:00Z,30.2513,-88.0778,7.38,9.6,1111122 
DISL,ioos:station:DISL:DISL:1,2009-10-02T07:00:00Z,30.2513,-88.0778,7.35,10.5,1111122 
DISL,ioos:station:DISL:DISL:1,2009-10-02T07:30:00Z,30.2513,-88.0778,7.33,10.39,1111122 
DISL,ioos:station:DISL:DISL:1,2009-10-02T08:00:00Z,30.2513,-88.0778,7.3,10.19,1111122 
DISL,ioos:station:DISL:DISL:1,2009-10-02T08:30:00Z,30.2513,-88.0778,7.23,9.71,1111122 
DISL,ioos:station:DISL:DISL:1,2009-10-02T09:00:00Z,30.2513,-88.0778,7.24,10.54,1111122 
DISL,ioos:station:DISL:DISL:1,2009-10-02T09:30:00Z,30.2513,-88.0778,7.21,9.13,1111122 
DISL,ioos:station:DISL:DISL:1,2009-10-02T10:00:00Z,30.2513,-88.0778,7.26,7.89,1111122 
DISL,ioos:station:DISL:DISL:1,2009-10-02T10:30:00Z,30.2513,-88.0778,7.29,8.47,1111122 
DISL,ioos:station:DISL:DISL:1,2009-10-02T11:00:00Z,30.2513,-88.0778,7.34,8.32,1111122 
DISL,ioos:station:DISL:DISL:1,2009-10-02T11:30:00Z,30.2513,-88.0778,7.35,8.77,1111122 
DISL,ioos:station:DISL:DISL:1,2009-10-02T12:00:00Z,30.2513,-88.0778,7.38,9.69,1111122 
DISL,ioos:station:DISL:DISL:1,2009-10-02T12:30:00Z,30.2513,-88.0778,7.35,9.95,1111122 
DISL,ioos:station:DISL:DISL:1,2009-10-02T13:00:00Z,30.2513,-88.0778,7.45,10.09,1111122 
DISL,ioos:station:DISL:DISL:1,2009-10-02T13:30:00Z,30.2513,-88.0778,7.39,9.99,1111122 
DISL,ioos:station:DISL:DISL:1,2009-10-02T14:00:00Z,30.2513,-88.0778,7.49,9.81,1111122 
DISL,ioos:station:DISL:DISL:1,2009-10-02T14:30:00Z,30.2513,-88.0778,7.41,8.05,1111122 
DISL,ioos:station:DISL:DISL:1,2009-10-02T15:00:00Z,30.2513,-88.0778,7.43,9.81,1111122 
DISL,ioos:station:DISL:DISL:1,2009-10-02T15:30:00Z,30.2513,-88.0778,7.43,8.23,1111122 
DISL,ioos:station:DISL:DISL:1,2009-10-02T16:00:00Z,30.2513,-88.0778,7.35,7.16,1111122 
DISL,ioos:station:DISL:DISL:1,2009-10-02T16:30:00Z,30.2513,-88.0778,7.38,7.23,1111122 
DISL,ioos:station:DISL:DISL:1,2009-10-02T17:00:00Z,30.2513,-88.0778,7.38,7.07,1111122 
DISL,ioos:station:DISL:DISL:1,2009-10-02T17:30:00Z,30.2513,-88.0778,7.48,7.11,1111122 
DISL,ioos:station:DISL:DISL:1,2009-10-02T18:00:00Z,30.2513,-88.0778,7.46,7.19,1111122 
DISL,ioos:station:DISL:DISL:1,2009-10-02T18:30:00Z,30.2513,-88.0778,7.3,6.89,1111122 
DISL,ioos:station:DISL:DISL:1,2009-10-02T19:00:00Z,30.2513,-88.0778,7.31,7.94,1111122 
DISL,ioos:station:DISL:DISL:1,2009-10-02T19:30:00Z,30.2513,-88.0778,7.22,7.58,1111122 
DISL,ioos:station:DISL:DISL:1,2009-10-02T20:00:00Z,30.2513,-88.0778,7.22,7.69,1111122 
DISL,ioos:station:DISL:DISL:1,2009-10-02T20:30:00Z,30.2513,-88.0778,7.19,8.04,1111122 
DISL,ioos:station:DISL:DISL:1,2009-10-02T21:00:00Z,30.2513,-88.0778,7.2,7.76,1111122 
DISL,ioos:station:DISL:DISL:1,2009-10-02T21:30:00Z,30.2513,-88.0778,7.18,6.99,1111122 
DISL,ioos:station:DISL:DISL:1,2009-10-02T22:00:00Z,30.2513,-88.0778,7.18,6.59,1111122 
DISL,ioos:station:DISL:DISL:1,2009-10-02T22:30:00Z,30.2513,-88.0778,7.11,6.49,1111122 
DISL,ioos:station:DISL:DISL:1,2009-10-02T23:00:00Z,30.2513,-88.0778,7.17,6.27,1111122 
DISL,ioos:station:DISL:DISL:1,2009-10-02T23:30:00Z,30.2513,-88.0778,7.17,6.19,1111122 
DISL,ioos:station:DISL:DISL:1,2009-10-03T00:00:00Z,30.2513,-88.0778,7.14,6.18,1111122 
DISL,ioos:station:DISL:DISL:1,2009-10-03T00:30:00Z,30.2513,-88.0778,7.21,6.36,1111122 
DISL,ioos:station:DISL:DISL:1,2009-10-03T01:00:00Z,30.2513,-88.0778,7.26,6.39,1111122 
DISL,ioos:station:DISL:DISL:1,2009-10-03T01:30:00Z,30.2513,-88.0778,7.2,6.32,1111122 
DISL,ioos:station:DISL:DISL:1,2009-10-03T02:00:00Z,30.2513,-88.0778,7.27,6.55,1111122 
DISL,ioos:station:DISL:DISL:1,2009-10-03T02:30:00Z,30.2513,-88.0778,7.25,6.54,1111122 
DISL,ioos:station:DISL:DISL:1,2009-10-03T03:00:00Z,30.2513,-88.0778,7.33,6.56,1111122 
DISL,ioos:station:DISL:DISL:1,2009-10-03T03:30:00Z,30.2513,-88.0778,7.27,9.06,1111122 
DISL,ioos:station:DISL:DISL:1,2009-10-03T04:00:00Z,30.2513,-88.0778,7.26,10.96,1111122 
DISL,ioos:station:DISL:DISL:1,2009-10-03T04:30:00Z,30.2513,-88.0778,7.34,9.92,1111122 
DISL,ioos:station:DISL:DISL:1,2009-10-03T05:00:00Z,30.2513,-88.0778,7.25,10.57,1111122 
DISL,ioos:station:DISL:DISL:1,2009-10-03T05:30:00Z,30.2513,-88.0778,7.25,10.39,1111122 
DISL,ioos:station:DISL:DISL:1,2009-10-03T06:00:00Z,30.2513,-88.0778,7.24,7.44,1111122 
DISL,ioos:station:DISL:DISL:1,2009-10-03T06:30:00Z,30.2513,-88.0778,7.18,6.65,1111122 
DISL,ioos:station:DISL:DISL:1,2009-10-03T07:00:00Z,30.2513,-88.0778,7.15,6.07,1111122 
DISL,ioos:station:DISL:DISL:1,2009-10-03T07:30:00Z,30.2513,-88.0778,7.11,5.99,1111122 
DISL,ioos:station:DISL:DISL:1,2009-10-03T08:00:00Z,30.2513,-88.0778,7.08,5.73,1111122 
DISL,ioos:station:DISL:DISL:1,2009-10-03T08:30:00Z,30.2513,-88.0778,7.04,5.6,1111122 
DISL,ioos:station:DISL:DISL:1,2009-10-03T09:00:00Z,30.2513,-88.0778,6.966,5.65,1111122 
DISL,ioos:station:DISL:DISL:1,2009-10-03T09:30:00Z,30.2513,-88.0778,6.912,5.62,1111122 
DISL,ioos:station:DISL:DISL:1,2009-10-03T10:00:00Z,30.2513,-88.0778,6.955,5.37,1111122 
DISL,ioos:station:DISL:DISL:1,2009-10-03T10:30:00Z,30.2513,-88.0778,6.919,5.39,1111122 
DISL,ioos:station:DISL:DISL:1,2009-10-03T11:00:00Z,30.2513,-88.0778,6.89,5.34,1111122 
DISL,ioos:station:DISL:DISL:1,2009-10-03T11:30:00Z,30.2513,-88.0778,6.852,5.39,1111122 
DISL,ioos:station:DISL:DISL:1,2009-10-03T12:00:00Z,30.2513,-88.0778,6.912,5.35,1111122 
DISL,ioos:station:DISL:DISL:1,2009-10-03T12:30:00Z,30.2513,-88.0778,6.966,5.36,1111122 
DISL,ioos:station:DISL:DISL:1,2009-10-03T13:00:00Z,30.2513,-88.0778,6.955,5.34,1111122 
DISL,ioos:station:DISL:DISL:1,2009-10-03T13:30:00Z,30.2513,-88.0778,6.925,5.29,1111122 
DISL,ioos:station:DISL:DISL:1,2009-10-03T14:00:00Z,30.2513,-88.0778,6.974,5.24,1111122 
DISL,ioos:station:DISL:DISL:1,2009-10-03T14:30:00Z,30.2513,-88.0778,7.01,5.28,1111122 
DISL,ioos:station:DISL:DISL:1,2009-10-03T15:00:00Z,30.2513,-88.0778,7.04,5.3,1111122 
DISL,ioos:station:DISL:DISL:1,2009-10-03T15:30:00Z,30.2513,-88.0778,7.02,5.3,1111122 
DISL,ioos:station:DISL:DISL:1,2009-10-03T16:00:00Z,30.2513,-88.0778,7.07,6.2,1111122 
DISL,ioos:station:DISL:DISL:1,2009-10-03T16:30:00Z,30.2513,-88.0778,7.16,6.95,1111122 
DISL,ioos:station:DISL:DISL:1,2009-10-03T17:00:00Z,30.2513,-88.0778,7.19,7.05,1111122 
DISL,ioos:station:DISL:DISL:1,2009-10-03T17:30:00Z,30.2513,-88.0778,7.21,6.83,1111122 
DISL,ioos:station:DISL:DISL:1,2009-10-03T18:00:00Z,30.2513,-88.0778,7.27,7.85,1111122 
DISL,ioos:station:DISL:DISL:1,2009-10-03T18:30:00Z,30.2513,-88.0778,7.28,9.91,1111122 
DISL,ioos:station:DISL:DISL:1,2009-10-03T19:00:00Z,30.2513,-88.0778,7.31,6.97,1111122 
DISL,ioos:station:DISL:DISL:1,2009-10-03T19:30:00Z,30.2513,-88.0778,7.29,7.3,1111122 
DISL,ioos:station:DISL:DISL:1,2009-10-03T20:00:00Z,30.2513,-88.0778,7.27,6.5,1111122 
DISL,ioos:station:DISL:DISL:1,2009-10-03T20:30:00Z,30.2513,-88.0778,7.27,6.19,1111122 
DISL,ioos:station:DISL:DISL:1,2009-10-03T21:00:00Z,30.2513,-88.0778,7.28,6.68,1111122 
DISL,ioos:station:DISL:DISL:1,2009-10-03T21:30:00Z,30.2513,-88.0778,7.28,6.01,1111122 
DISL,ioos:station:DISL:DISL:1,2009-10-03T22:00:00Z,30.2513,-88.0778,7.29,5.86,1111122 
DISL,ioos:station:DISL:DISL:1,2009-10-03T22:30:00Z,30.2513,-88.0778,7.28,5.75,1111122 
DISL,ioos:station:DISL:DISL:1,2009-10-03T23:00:00Z,30.2513,-88.0778,7.32,5.62,1111122 
DISL,ioos:station:DISL:DISL:1,2009-10-03T23:30:00Z,30.2513,-88.0778,7.37,5.37,1111122 
DISL,ioos:station:DISL:DISL:1,2009-10-04T00:00:00Z,30.2513,-88.0778,7.41,5.44,1111122 
DISL,ioos:station:DISL:DISL:1,2009-10-04T00:30:00Z,30.2513,-88.0778,7.44,5.4,1111122 
DISL,ioos:station:DISL:DISL:1,2009-10-04T01:00:00Z,30.2513,-88.0778,7.42,5.66,1111122 
DISL,ioos:station:DISL:DISL:1,2009-10-04T01:30:00Z,30.2513,-88.0778,7.44,7.2,1111122 
DISL,ioos:station:DISL:DISL:1,2009-10-04T02:00:00Z,30.2513,-88.0778,7.46,8.44,1111122 
DISL,ioos:station:DISL:DISL:1,2009-10-04T02:30:00Z,30.2513,-88.0778,7.51,7.63,1111122 
DISL,ioos:station:DISL:DISL:1,2009-10-04T03:00:00Z,30.2513,-88.0778,7.57,8.59,1111122 
DISL,ioos:station:DISL:DISL:1,2009-10-04T03:30:00Z,30.2513,-88.0778,7.52,12.44,1111122 
DISL,ioos:station:DISL:DISL:1,2009-10-04T04:00:00Z,30.2513,-88.0778,7.56,6.72,1111122 
DISL,ioos:station:DISL:DISL:1,2009-10-04T04:30:00Z,30.2513,-88.0778,7.55,5.68,1111122 
DISL,ioos:station:DISL:DISL:1,2009-10-04T05:00:00Z,30.2513,-88.0778,7.52,5.6,1111122 
DISL,ioos:station:DISL:DISL:1,2009-10-04T05:30:00Z,30.2513,-88.0778,7.45,6.14,1111122 
DISL,ioos:station:DISL:DISL:1,2009-10-04T06:00:00Z,30.2513,-88.0778,7.4,5.72,1111122 
DISL,ioos:station:DISL:DISL:1,2009-10-04T06:30:00Z,30.2513,-88.0778,7.39,5.51,1111122 
DISL,ioos:station:DISL:DISL:1,2009-10-04T07:00:00Z,30.2513,-88.0778,7.31,5.48,1111122 
DISL,ioos:station:DISL:DISL:1,2009-10-04T07:30:00Z,30.2513,-88.0778,7.28,5.4,1111122 
DISL,ioos:station:DISL:DISL:1,2009-10-04T08:00:00Z,30.2513,-88.0778,7.19,5.42,1111122 
DISL,ioos:station:DISL:DISL:1,2009-10-04T08:30:00Z,30.2513,-88.0778,7.18,5.35,1111122 
DISL,ioos:station:DISL:DISL:1,2009-10-04T09:00:00Z,30.2513,-88.0778,6.945,5.38,1111122 
DISL,ioos:station:DISL:DISL:1,2009-10-04T09:30:00Z,30.2513,-88.0778,6.98,5.37,1111122 
DISL,ioos:station:DISL:DISL:1,2009-10-04T10:00:00Z,30.2513,-88.0778,6.945,5.39,1111122 
DISL,ioos:station:DISL:DISL:1,2009-10-04T10:30:00Z,30.2513,-88.0778,6.882,5.4,1111122 
DISL,ioos:station:DISL:DISL:1,2009-10-04T11:00:00Z,30.2513,-88.0778,6.881,5.46,1111122 
DISL,ioos:station:DISL:DISL:1,2009-10-04T11:30:00Z,30.2513,-88.0778,6.876,5.53,1111122 
DISL,ioos:station:DISL:DISL:1,2009-10-04T12:00:00Z,30.2513,-88.0778,6.906,5.55,1111122 
DISL,ioos:station:DISL:DISL:1,2009-10-04T12:30:00Z,30.2513,-88.0778,6.913,5.54,1111122 
DISL,ioos:station:DISL:DISL:1,2009-10-04T13:00:00Z,30.2513,-88.0778,6.939,5.57,1111122 
DISL,ioos:station:DISL:DISL:1,2009-10-04T13:30:00Z,30.2513,-88.0778,6.952,5.95,1111122 
DISL,ioos:station:DISL:DISL:1,2009-10-04T14:00:00Z,30.2513,-88.0778,7.08,6.71,1111122 
DISL,ioos:station:DISL:DISL:1,2009-10-04T14:30:00Z,30.2513,-88.0778,7.03,6.84,1111122 
DISL,ioos:station:DISL:DISL:1,2009-10-04T15:00:00Z,30.2513,-88.0778,7.12,6.76,1111122 
DISL,ioos:station:DISL:DISL:1,2009-10-04T15:30:00Z,30.2513,-88.0778,7.15,6.66,1111122 
DISL,ioos:station:DISL:DISL:1,2009-10-04T16:00:00Z,30.2513,-88.0778,7.24,5.97,1111122 
DISL,ioos:station:DISL:DISL:1,2009-10-04T16:30:00Z,30.2513,-88.0778,7.26,5.99,1111122 
DISL,ioos:station:DISL:DISL:1,2009-10-04T17:00:00Z,30.2513,-88.0778,7.22,6.29,1111122 
DISL,ioos:station:DISL:DISL:1,2009-10-04T17:30:00Z,30.2513,-88.0778,7.4,6.32,1111122 
DISL,ioos:station:DISL:DISL:1,2009-10-04T18:00:00Z,30.2513,-88.0778,7.5,6.48,1111122 
DISL,ioos:station:DISL:DISL:1,2009-10-04T18:30:00Z,30.2513,-88.0778,7.55,6.49,1111122 
DISL,ioos:station:DISL:DISL:1,2009-10-04T19:00:00Z,30.2513,-88.0778,7.34,11.93,1111122 
DISL,ioos:station:DISL:DISL:1,2009-10-04T19:30:00Z,30.2513,-88.0778,7.5,6.7,1111122 
DISL,ioos:station:DISL:DISL:1,2009-10-04T20:00:00Z,30.2513,-88.0778,7.81,6.84,1111122 
DISL,ioos:station:DISL:DISL:1,2009-10-04T20:30:00Z,30.2513,-88.0778,7.47,11.85,1111122 
DISL,ioos:station:DISL:DISL:1,2009-10-04T21:00:00Z,30.2513,-88.0778,7.57,7.04,1111122 
DISL,ioos:station:DISL:DISL:1,2009-10-04T21:30:00Z,30.2513,-88.0778,7.56,19.76,1111122 
DISL,ioos:station:DISL:DISL:1,2009-10-04T22:00:00Z,30.2513,-88.0778,7.66,7.45,1111122 
DISL,ioos:station:DISL:DISL:1,2009-10-04T22:30:00Z,30.2513,-88.0778,7.55,14.57,1111122 
DISL,ioos:station:DISL:DISL:1,2009-10-04T23:00:00Z,30.2513,-88.0778,7.64,8.87,1111122 
DISL,ioos:station:DISL:DISL:1,2009-10-04T23:30:00Z,30.2513,-88.0778,7.74,12.13,1111122 
DISL,ioos:station:DISL:DISL:1,2009-10-05T00:00:00Z,30.2513,-88.0778,7.81,18.09,1111122 
DISL,ioos:station:DISL:DISL:1,2009-10-05T00:30:00Z,30.2513,-88.0778,7.72,20.85,1111122 
DISL,ioos:station:DISL:DISL:1,2009-10-05T01:00:00Z,30.2513,-88.0778,7.73,23.57,1111122 
DISL,ioos:station:DISL:DISL:1,2009-10-05T01:30:00Z,30.2513,-88.0778,7.77,22.43,1111122 
DISL,ioos:station:DISL:DISL:1,2009-10-05T02:00:00Z,30.2513,-88.0778,7.82,23.73,1111122 
DISL,ioos:station:DISL:DISL:1,2009-10-05T02:30:00Z,30.2513,-88.0778,7.9,23.33,1111122 
DISL,ioos:station:DISL:DISL:1,2009-10-05T03:00:00Z,30.2513,-88.0778,7.82,19.94,1111122 
DISL,ioos:station:DISL:DISL:1,2009-10-05T03:30:00Z,30.2513,-88.0778,7.93,14.99,1111122 
DISL,ioos:station:DISL:DISL:1,2009-10-05T04:00:00Z,30.2513,-88.0778,7.98,13.89,1111122 
DISL,ioos:station:DISL:DISL:1,2009-10-05T04:30:00Z,30.2513,-88.0778,7.97,11.11,1111122 
DISL,ioos:station:DISL:DISL:1,2009-10-05T05:00:00Z,30.2513,-88.0778,7.86,11.06,1111122 
DISL,ioos:station:DISL:DISL:1,2009-10-05T05:30:00Z,30.2513,-88.0778,7.78,9.06,1111122 
DISL,ioos:station:DISL:DISL:1,2009-10-05T06:00:00Z,30.2513,-88.0778,7.83,10.67,1111122 
DISL,ioos:station:DISL:DISL:1,2009-10-05T06:30:00Z,30.2513,-88.0778,7.65,7.83,1111122 
DISL,ioos:station:DISL:DISL:1,2009-10-05T07:00:00Z,30.2513,-88.0778,7.63,10.63,1111122 
DISL,ioos:station:DISL:DISL:1,2009-10-05T07:30:00Z,30.2513,-88.0778,7.59,10.6,1111122 
DISL,ioos:station:DISL:DISL:1,2009-10-05T08:00:00Z,30.2513,-88.0778,7.52,7.79,1111122 
DISL,ioos:station:DISL:DISL:1,2009-10-05T08:30:00Z,30.2513,-88.0778,7.3,7.82,1111122 
DISL,ioos:station:DISL:DISL:1,2009-10-05T09:00:00Z,30.2513,-88.0778,7.2,7.04,1111122 
DISL,ioos:station:DISL:DISL:1,2009-10-05T09:30:00Z,30.2513,-88.0778,7.17,8.44,1111122 
DISL,ioos:station:DISL:DISL:1,2009-10-05T10:00:00Z,30.2513,-88.0778,7.24,7.11,1111122 
DISL,ioos:station:DISL:DISL:1,2009-10-05T10:30:00Z,30.2513,-88.0778,7.16,6.78,1111122 
DISL,ioos:station:DISL:DISL:1,2009-10-05T11:00:00Z,30.2513,-88.0778,6.972,7.08,1111122 
DISL,ioos:station:DISL:DISL:1,2009-10-05T11:30:00Z,30.2513,-88.0778,6.949,7.0,1111122 
DISL,ioos:station:DISL:DISL:1,2009-10-05T12:00:00Z,30.2513,-88.0778,7.02,6.72,1111122 
DISL,ioos:station:DISL:DISL:1,2009-10-05T12:30:00Z,30.2513,-88.0778,6.937,6.3,1111122 
DISL,ioos:station:DISL:DISL:1,2009-10-05T13:00:00Z,30.2513,-88.0778,6.826,7.15,1111122 
DISL,ioos:station:DISL:DISL:1,2009-10-05T13:30:00Z,30.2513,-88.0778,6.768,6.99,1111122 
DISL,ioos:station:DISL:DISL:1,2009-10-05T14:00:00Z,30.2513,-88.0778,6.835,7.05,1111122 
DISL,ioos:station:DISL:DISL:1,2009-10-05T14:30:00Z,30.2513,-88.0778,6.756,5.87,1111122 
DISL,ioos:station:DISL:DISL:1,2009-10-05T15:00:00Z,30.2513,-88.0778,6.846,6.52,1111122 
DISL,ioos:station:DISL:DISL:1,2009-10-05T15:30:00Z,30.2513,-88.0778,6.779,6.81,1111122 
DISL,ioos:station:DISL:DISL:1,2009-10-05T16:00:00Z,30.2513,-88.0778,6.756,7.42,1111122 
DISL,ioos:station:DISL:DISL:1,2009-10-05T16:30:00Z,30.2513,-88.0778,6.857,8.35,1111122 
DISL,ioos:station:DISL:DISL:1,2009-10-05T17:00:00Z,30.2513,-88.0778,6.854,9.14,1111122 
DISL,ioos:station:DISL:DISL:1,2009-10-05T17:30:00Z,30.2513,-88.0778,6.906,9.48,1111122 
DISL,ioos:station:DISL:DISL:1,2009-10-05T18:00:00Z,30.2513,-88.0778,6.941,9.53,1111122 
DISL,ioos:station:DISL:DISL:1,2009-10-05T18:30:00Z,30.2513,-88.0778,6.929,9.59,1111122 
DISL,ioos:station:DISL:DISL:1,2009-10-05T19:00:00Z,30.2513,-88.0778,6.986,9.71,1111122 
DISL,ioos:station:DISL:DISL:1,2009-10-05T19:30:00Z,30.2513,-88.0778,7.0,9.86,1111122 
DISL,ioos:station:DISL:DISL:1,2009-10-05T20:00:00Z,30.2513,-88.0778,7.1,10.04,1111122 
DISL,ioos:station:DISL:DISL:1,2009-10-05T20:30:00Z,30.2513,-88.0778,7.09,10.26,1111122 
DISL,ioos:station:DISL:DISL:1,2009-10-05T21:00:00Z,30.2513,-88.0778,7.05,10.24,1111122 
DISL,ioos:station:DISL:DISL:1,2009-10-05T21:30:00Z,30.2513,-88.0778,7.08,10.3,1111122 
DISL,ioos:station:DISL:DISL:1,2009-10-05T22:00:00Z,30.2513,-88.0778,7.11,10.6,1111122 
DISL,ioos:station:DISL:DISL:1,2009-10-05T22:30:00Z,30.2513,-88.0778,7.21,10.77,1111122 
DISL,ioos:station:DISL:DISL:1,2009-10-05T23:00:00Z,30.2513,-88.0778,7.3,10.38,1111122 
DISL,ioos:station:DISL:DISL:1,2009-10-05T23:30:00Z,30.2513,-88.0778,7.59,10.27,1111122 
DISL,ioos:station:DISL:DISL:1,2009-10-06T00:00:00Z,30.2513,-88.0778,7.4,10.2,1111122 
DISL,ioos:station:DISL:DISL:1,2009-10-06T00:30:00Z,30.2513,-88.0778,7.42,10.45,1111122 
DISL,ioos:station:DISL:DISL:1,2009-10-06T01:00:00Z,30.2513,-88.0778,7.64,10.26,1111122 
DISL,ioos:station:DISL:DISL:1,2009-10-06T01:30:00Z,30.2513,-88.0778,7.66,10.28,1111122 
DISL,ioos:station:DISL:DISL:1,2009-10-06T02:00:00Z,30.2513,-88.0778,7.79,10.09,1111122 
DISL,ioos:station:DISL:DISL:1,2009-10-06T02:30:00Z,30.2513,-88.0778,7.78,10.86,1111122 
DISL,ioos:station:DISL:DISL:1,2009-10-06T03:00:00Z,30.2513,-88.0778,7.82,10.35,1111122 
DISL,ioos:station:DISL:DISL:1,2009-10-06T03:30:00Z,30.2513,-88.0778,7.79,10.46,1111122 
DISL,ioos:station:DISL:DISL:1,2009-10-06T04:00:00Z,30.2513,-88.0778,7.86,10.64,1111122 
DISL,ioos:station:DISL:DISL:1,2009-10-06T04:30:00Z,30.2513,-88.0778,7.8,10.36,1111122 
DISL,ioos:station:DISL:DISL:1,2009-10-06T05:00:00Z,30.2513,-88.0778,7.7,10.38,1111122 
DISL,ioos:station:DISL:DISL:1,2009-10-06T05:30:00Z,30.2513,-88.0778,7.71,9.54,1111122 
DISL,ioos:station:DISL:DISL:1,2009-10-06T06:00:00Z,30.2513,-88.0778,7.66,5.93,1111122 
DISL,ioos:station:DISL:DISL:1,2009-10-06T06:30:00Z,30.2513,-88.0778,7.6,5.42,1111122 
DISL,ioos:station:DISL:DISL:1,2009-10-06T07:00:00Z,30.2513,-88.0778,7.56,5.01,1111122 
DISL,ioos:station:DISL:DISL:1,2009-10-06T07:30:00Z,30.2513,-88.0778,7.49,4.82,1111122 
DISL,ioos:station:DISL:DISL:1,2009-10-06T08:00:00Z,30.2513,-88.0778,7.39,4.65,1111122 
DISL,ioos:station:DISL:DISL:1,2009-10-06T08:30:00Z,30.2513,-88.0778,7.28,4.63,1111122 
DISL,ioos:station:DISL:DISL:1,2009-10-06T09:00:00Z,30.2513,-88.0778,7.16,4.58,1111122 
DISL,ioos:station:DISL:DISL:1,2009-10-06T09:30:00Z,30.2513,-88.0778,7.08,4.54,1111122 
DISL,ioos:station:DISL:DISL:1,2009-10-06T10:00:00Z,30.2513,-88.0778,7.03,4.53,1111122 
DISL,ioos:station:DISL:DISL:1,2009-10-06T10:30:00Z,30.2513,-88.0778,6.882,4.51,1111122 
DISL,ioos:station:DISL:DISL:1,2009-10-06T11:00:00Z,30.2513,-88.0778,6.795,4.64,1111122 
DISL,ioos:station:DISL:DISL:1,2009-10-06T11:30:00Z,30.2513,-88.0778,6.759,4.72,1111122 
DISL,ioos:station:DISL:DISL:1,2009-10-06T12:00:00Z,30.2513,-88.0778,6.71,4.86,1111122 
DISL,ioos:station:DISL:DISL:1,2009-10-06T12:30:00Z,30.2513,-88.0778,6.652,4.84,1111122 
DISL,ioos:station:DISL:DISL:1,2009-10-06T13:00:00Z,30.2513,-88.0778,6.573,4.75,1111122 
DISL,ioos:station:DISL:DISL:1,2009-10-06T13:30:00Z,30.2513,-88.0778,6.505,4.69,1111122 
DISL,ioos:station:DISL:DISL:1,2009-10-06T14:00:00Z,30.2513,-88.0778,6.449,4.97,1111122 
DISL,ioos:station:DISL:DISL:1,2009-10-06T14:30:00Z,30.2513,-88.0778,6.372,4.94,1111122 
DISL,ioos:station:DISL:DISL:1,2009-10-06T15:00:00Z,30.2513,-88.0778,6.408,4.82,1111122 
DISL,ioos:station:DISL:DISL:1,2009-10-06T15:30:00Z,30.2513,-88.0778,6.43,4.65,1111122 
DISL,ioos:station:DISL:DISL:1,2009-10-06T16:00:00Z,30.2513,-88.0778,6.409,4.67,1111122 